Find Paksat MM1

NORAD ID: 59915 Int'l Des: 2024-104 Owner: SUPA Country: PK operational
HEOCIRCULARGSOGEO

实时位置

正在加载3D地球...

关于 Paksat MM1

正在加载描述...

即将过境

Passes for default location (London). Set your location on the main map for personalized predictions.

高度历史

Loading altitude history...

两行轨道根数

1 59915U 24104A 26107.19489390 .00000160 00000-0 00000-0 0 9996
2 59915 0.0032 154.4641 0002050 213.9150 305.2815 1.00268866 6916
Epoch: Apr 17, 2026 • Age: 8 hours

当前状态

高度 35784.0 km
速度 3.07 km/s
星下点 -0.01°S, 38.18°E
发射日期 May 30, 2024
运行时间 1.8 years
类型 other

技术详情

分类 Payload
质量 5400.00 kg
干质量 2500.00 kg
总质量 5400.00 kg
长度 3.60 m
直径 2.40 m
跨度 15.50 m
形状 Box + 2 Pan
制造商 CAST
平台类型 DFH-4
阶段状态 In Orbit
所有者/国家 SUPA/PK

Most Searched